ChubuSat-3 (41339 NORAD) Tracking and Keplerian Element Data

This shows tracking and keplerian element data for the satellite.

Feedback or suggestion? Click here.




ElementValue
Catalog41339
NameChubuSat-3
Epoch Orbit14952
Epoch Day312.57685643
Epoch Year2018
RAAN114.6202
Inclination31.0099
Eccentricity0.0013605
Argument of Perigee69.1477
Mean Anonmoly291.0612
Mean Motion15.00234117
Decay Rate3.94E-06
L11 41339U 16012C 18312.57685643 .00000394 00000-0 23990-4 0 9992
L22 41339 31.0099 114.6202 0013605 69.1477 291.0612 15.00234117149525

Live tracking and technical data element details for ChubuSat-3 (NORAD 41339). ChubuSat-3 can be tracked NOW for your location showing map with azimuth and elevation plus other details from your city location.

Track the satellite on the map from your city or location and see movement details for azimuth, elevation, latitude, longitude, range, height, and movement on the map or in text.







IsCatalogInMostPopularTable: catalog: 41339, numindb: 138
Update: records affected: 1



GetName: 41339 ChubuSat-3

Hit Count: updated at: Wed, 14 Nov 2018 15:21:04 GMT